Printer-friendly version

IAU Minor Planet Center

Minor Planet Center

MPEC 2006-W19 : 2002 GV31

The following Minor Planet Electronic Circular may be linked-to from your own Web pages, but must not otherwise be redistributed electronically.


Read MPEC 2006-W18 Read MPEC 2006-W20


M.P.E.C. 2006-W19                                Issued 2006 Nov. 18, 03:38 UT

     The Minor Planet Electronic Circulars contain information on unusual
         minor planets and routine data on comets.  They are published
   on behalf of Commission 20 of the International Astronomical Union by the
          Minor Planet Center, Smithsonian Astrophysical Observatory,
                          Cambridge, MA 02138, U.S.A.

             Prepared using the Tamkin Foundation Computer Network

                              MPC@CFA.HARVARD.EDU
          URL http://cfa-www.harvard.edu/iau/mpc.html  ISSN 1523-6714

                                   2002 GV31

                           Revision to MPEC 2002-K12

Additional Observations:
     K02G31V  C2004 02 17.12059 10 38 37.73 +10 57 31.1          21.4 R EW019493
     K02G31V  C2004 02 17.12751 10 38 37.68 +10 57 31.1          21.6 R EW019493
     K02G31V  C2004 02 17.13444 10 38 37.67 +10 57 31.4          21.3 R EW019493
     K02G31V  C2004 02 18.01737 10 38 33.52 +10 57 56.6          21.5 R EW019493
     K02G31V  C2004 02 18.06765 10 38 33.28 +10 57 57.9          21.6 R EW019493
     K02G31V  C2004 02 18.10836 10 38 33.08 +10 57 59.2          21.4 R EW019493
     K02G31V  C2004 02 18.14907 10 38 32.89 +10 58 00.5          21.2 R EW019493
     K02G31V  C2004 02 18.18603 10 38 32.72 +10 58 01.4          21.5 R EW019493

Observer details:
493 Calar Alto.  Observers J. L. Ortiz, P. Santos-Sanz.  Measurer R. Stoss.
    2.2-m reflector + CCD.

Orbital elements:
2002 GV31
Epoch 2006 Sept. 22.0 TT = JDT 2454000.5                MPC
M  35.91087              (2000.0)            P               Q
n   0.00340179     Peri.   58.79052     -0.46999256     -0.88206377
a  43.7855718      Node    59.27787     +0.79633495     -0.43971923
e   0.0898037      Incl.    2.18120     +0.38073303     -0.16914640
P 290              H    5.7           G   0.15           U   8
Residuals in seconds of arc
020406 807  0.3-  0.2+    020408 807  0.2-  0.0     040218 493  0.2-  0.0
020406 807  0.0   0.0     020409 807  0.3-  0.1-    040218 493  0.3-  0.2+
020407 807  0.3-  0.3+    040217 493  0.2-  0.1+    040218 493  0.2-  0.3+
020407 807  0.6-  0.0     040217 493  0.5-  0.1-    040218 493  0.1-  0.2+
020407 807  0.4-  0.2+    040217 493  0.1-  0.0
020408 807  0.2-  0.2+    040218 493  0.2-  0.1+

Ephemeris:
2002 GV31                a,e,i = 43.79, 0.09, 2                  q = 39.853
Date    TT    R. A. (2000) Decl.     Delta      r     Elong.  Phase     V
2006 11 11    10 57.17   +08 59.2   41.133   40.745    66.3     1.3    22.0
2006 11 21    10 57.61   +08 57.0   40.970   40.746    76.2     1.3    22.0
2006 12 01    10 57.89   +08 55.8   40.800   40.748    86.3     1.4    22.0
2006 12 11    10 58.02   +08 55.6   40.628   40.749    96.4     1.4    22.0
2006 12 21    10 58.00   +08 56.3   40.459   40.751   106.6     1.3    22.0
2006 12 31    10 57.81   +08 58.0   40.300   40.753   116.8     1.2    22.0
2007 01 10    10 57.48   +09 00.6   40.154   40.754   127.1     1.1    21.9
2007 01 20    10 57.01   +09 03.9   40.026   40.756   137.4     0.9    21.9
2007 01 30    10 56.43   +09 07.8   39.921   40.757   147.7     0.7    21.9
2007 02 09    10 55.75   +09 12.2   39.843   40.759   158.0     0.5    21.9
2007 02 19    10 55.01   +09 16.9   39.793   40.761   168.2     0.3    21.8
2007 03 01    10 54.24   +09 21.7   39.772   40.762   177.4     0.1    21.8
2007 03 11    10 53.45   +09 26.5   39.783   40.764   170.9     0.2    21.8
2007 03 21    10 52.69   +09 30.9   39.823   40.765   160.8     0.5    21.8
2007 03 31    10 51.98   +09 35.0   39.892   40.767   150.8     0.7    21.9
2007 04 10    10 51.35   +09 38.5   39.987   40.769   140.8     0.9    21.9
2007 04 20    10 50.81   +09 41.3   40.106   40.770   130.9     1.1    21.9
2007 04 30    10 50.40   +09 43.3   40.243   40.772   121.0     1.2    21.9
2007 05 10    10 50.13   +09 44.4   40.396   40.773   111.3     1.3    22.0
2007 05 20    10 49.99   +09 44.7   40.559   40.775   101.6     1.4    22.0
2007 05 30    10 50.01   +09 44.0   40.728   40.777    92.0     1.4    22.0
2007 06 09    10 50.18   +09 42.4   40.898   40.778    82.5     1.4    22.0
2007 06 19    10 50.49   +09 39.9   41.065   40.780    73.0     1.4    22.0
2007 06 29    10 50.95   +09 36.6   41.223   40.781    63.6     1.3    22.0

Gareth V. Williams           (C) Copyright 2006 MPC           M.P.E.C. 2006-W19

Read MPEC 2006-W18 Read MPEC 2006-W20


Our Web policy. Index to the CBAT/MPC/ICQ pages.


Valid HTML 4.01!